Regional Weather Roundup
Issued by NWS

Home | Current Version | Previous Version | Graphics & Text | Print | Product List | Glossary Off
Versions: 1 2 3 4 5 6 7 8 9 10 11 12 13 14 15 16 17 18 19 20 21 22 23 24 25 26 27 28 29 30 31 32 33 34 35 36 37 38 39 40 41 42 43 44 45 46 47 48 49 50

000
ASUS43 KMKX 271500
RWRWI

WISCONSIN REGIONAL WEATHER ROUNDUP
NATIONAL WEATHER SERVICE MILWAUKEE/SULLIVAN WI
1000 AM CDT WED JUL 27 2016

NOTE: "FAIR" INDICATES FEW OR NO CLOUDS BELOW 12,000 FEET WITH NO
SIGNIFICANT WEATHER AND/OR OBSTRUCTIONS TO VISIBILITY.

WIZ001-002-006>008-014>016-023>028-271600-
NORTHWEST WISCONSIN

CITY           SKY/WX    TMP DP  RH WIND       PRES   REMARKS
SUPERIOR ARPT  CLOUDY    65  60  83 NE12G18   29.99S
ASHLAND        CLOUDY    69  66  90 N8        30.00R
HAYWARD        LGT RAIN  68  65  90 CALM      30.01R
SIREN          CLOUDY    70  66  88 SE3       30.00R
CUMBERLAND     CLOUDY    68  63  83 S3        30.02R
RICE LAKE      DRIZZLE   69  63  82 SE8       30.02S
CHETEK         DRIZZLE   68  65  88 S5        30.02S
LADYSMITH      CLOUDY    68  65  90 CALM      30.03S
EAU CLAIRE     NOT AVBL
MENOMONIE      CLOUDY    74  71  88 E5        30.01S
NEW RICHMOND   CLOUDY    73  70  89 S5        30.00R
OSCEOLA        LGT RAIN  74  74 100 CALM      30.01S
$$

WIZ003>005-009-010-017-018-271600-
NORTH CENTRAL WISCONSIN

CITY           SKY/WX    TMP DP  RH WIND       PRES   REMARKS
MANITOWISH WTR DRIZZLE   65  65 100 SW3       30.04R
ARBOR VITAE    CLOUDY    67  65  94 CALM      30.05R
WOODRUFF       CLOUDY    67  65  94 CALM      30.05R
RHINELANDER    CLOUDY    65  63  93 SW3       30.04F
EAGLE RIVER    LGT RAIN  66  66  98 CALM      30.04S
LAND O LAKES   RAIN      64  63  96 NW6       30.05F
PHILLIPS       CLOUDY    65  64  97 S3        30.01F
TOMAHAWK       CLOUDY    63  62  96 CALM      30.04F
MEDFORD        CLOUDY    66  66 100 E3        30.04F
MERRILL        LGT RAIN  65  65 100 E3        30.06F
$$

WIZ029-030-035-036-043>047-271600-
CENTRAL WISCONSIN

CITY           SKY/WX    TMP DP  RH WIND       PRES   REMARKS
WAUSAU         LGT RAIN  66  64  93 NE3       30.03F
MOSINEE        CLOUDY    66  64  94 N13G25    30.03S
MARSHFIELD     CLOUDY    74  63  68 NE15      30.04R
STEVENS POINT  MOSUNNY   77  67  71 CALM      30.02R
WAUPACA        PTSUNNY   80  67  65 CALM      30.01S HX  83
WAUTOMA        MOSUNNY   80  71  74 VRB5      30.01S HX  84
WISC RAPIDS    MOSUNNY   79  68  69 NW6       30.04R HX  81
CAMP DOUGLAS   NOT AVBL
$$

WIZ011>013-019>022-031-037>040-048>050-271600-
NORTHEAST WISCONSIN

CITY           SKY/WX    TMP DP  RH WIND       PRES   REMARKS
ANTIGO         CLOUDY    69  63  81 NW9       30.07S
SHAWANO        LGT RAIN  75  66  75 N3        30.03R
OCONTO         MOSUNNY   76  65  68 NW7       30.01R
STURGEON BAY   SUNNY     77  66  68 NW9       30.01R
GREEN BAY      PTSUNNY   79  69  71 N9        30.01R HX  81
MANITOWOC      NOT AVBL
APPLETON       PTSUNNY   75  63  64 CALM      29.99S
CLINTONVILLE   PTSUNNY   79  63  57 N6        30.01S HX  80
OSHKOSH        MOSUNNY   80  65  59 CALM      30.00F HX  82
$$

WIZ032>034-041-042-053>061-271600-
SOUTHWEST WISCONSIN

CITY           SKY/WX    TMP DP  RH WIND       PRES   REMARKS
LA CROSSE      PTSUNNY   80  69  69 VRB5      30.00F HX  83
SPARTA         CLOUDY    76  69  76 CALM      30.03R
VIROQUA        MOSUNNY   78  67  69 W3        30.05R
BOSCOBEL       SUNNY     80  69  69 CALM      30.03R HX  83
PRAIRIE DU CHI MOSUNNY   77  67  70 CALM      30.02S
PLATTEVILLE    SUNNY     78  70  77 CALM      30.04S HX  80
$$

WIZ056-057-062-063-064-067-068-271600-
SOUTH CENTRAL WISCONSIN

CITY           SKY/WX    TMP DP  RH WIND       PRES   REMARKS
REEDSBURG      SUNNY     78  70  74 W5        30.03S HX  81
BARABOO/DELLS  MOSUNNY   78  67  70 W5        30.03S HX  80
LONE ROCK      NOT AVBL
MINERAL POINT  SUNNY     79  68  69 CALM      30.05R HX  81
MADISON        PTSUNNY   82  68  62 NW5       30.01S HX  85
MIDDLETON      SUNNY     81  68  64 NW5       30.03S HX  84
WATERTOWN      MOSUNNY   79  70  75 CALM      30.01S HX  81
MONROE         SUNNY     79  64  61 NW3       30.04S HX  81
JANESVILLE     MOSUNNY   81  66  61 CALM      30.01S HX  83
$$

WIZ051-052-058>065-066-070>072-271600-
SOUTHEAST WISCONSIN

CITY           SKY/WX    TMP DP  RH WIND       PRES   REMARKS
MILWAUKEE      PTSUNNY   83  67  58 NW7       30.00S HX  85
WAUKESHA       CLOUDY    79  64  61 W7        30.03S HX  81
MILWAUKEE/TIMM MOSUNNY   82  63  51 W8        30.01F HX  83
RACINE         SUNNY     83  68  60 VRB7      30.02F HX  86
BURLINGTON     SUNNY     81  67  61 CALM      30.02S HX  83
KENOSHA        SUNNY     82  67  60 W6        30.01F HX  84
FOND DU LAC    MOSUNNY   81  70  69 W5        30.00S HX  84
SHEBOYGAN      SUNNY     82  66  58 S5        29.99S HX  84
WEST BEND      SUNNY     81  66  61 W3        30.01S HX  83
JUNEAU         SUNNY     78  69  75 W6        30.03S
$$

LSZ147-162-271600-
LAKE SUPERIOR

STATION/POSITION TIME  TEMP    WIND        PRES    WAVE
                       AIR SEA DIR/SP/G            HT/PER
                 (UTC) (F)     (DEG/KT/KT) (MB)    (FT/S)
W MID LAKE BUOY  1350   64 60   50/ 16/ 17 1015.2F   1/ 3
DEVILS ISLAND    1400   64      70/ 12/ 14 1016.6R
PORT WING        1440   67      40/ 15/ 20 1015.9R
SAXON HARBOR     1400   69     170/  1/  2 1015.2F
$$

LMZ867-665-643>646-271600-
LAKE MICHIGAN

STATION/POSITION TIME  TEMP    WIND        PRES    WAVE
                       AIR SEA DIR/SP/G            HT/PER
                 (UTC) (F)     (DEG/KT/KT) (MB)    (FT/S)
CHAMBERS ISLAND  1400   74     260/  5/  8 1015.6R
S GREEN BAY BUOY 1400   73 74  320/  6/  6   N/A
N MID LAKE BUOY  1350   70 70  240/  4/  4 1014.2R   1/ 4
NORTHPORT PIER   1400   74     300/  4/  5 1015.2R
SISTER BAY       1421   75     320/ 11/ 13   N/A
ALGOMA LAKESHORE 1413             CALM       N/A
KEWAUNEE LAKESHO 1400   70     200/  1/  4 1014.8R
SHEBOYGAN LAKESH 1400   74      50/  2/  2 1015.5S
PORT WASHINGTON  1440   78     110/  2/  4 1016.3F
ATWATER BUOY     1400   68 54   10/  6/  6 1017.5R
MILWAUKEE LAKESH 1410   70      50/  4/  5   N/A
S MID LAKE BUOY  1350   75 74  230/  8/  8 1015.3F   0
KENOSHA   LAKESH 1400   80     270/  4/  7 1015.9S
$$

TC  - TEMPERATURE IN CELSIUS
VSB - VISIBILITY IN STATUTE MILES
WCI - WIND CHILL INDEX
HX  - HEAT INDEX





USA.gov is the U.S. government's official web portal to all federal, state and local government web resources and services.